SL-18 DEB

Satellite information

Favourite Embed

Satellite Type and Status

DEBRISIN ORBIT

Key statistics

Satellite SL-18 DEB at a glance.

Uptime

11951

Days in orbit

Revolutions

≈ 14.5

Per day

Orbit

LEO

Low Earth Orbit

Inclination

75.8

Latest

Satellite identification and parameters

Extended collection of information and parameters for SL-18 DEB.

Object identification

Identified? True

Debris? True

Object name: SL-18 DEB

International designator: 1993-014E

Object number (NORAD): 22599

Object ID (CCSDS): 22599

Country: COMMONWEALTH OF INDEPENDENT STATES (CIS)

Current information (Y/N): Y

RCS size: SMALL

Orbital parameters

Period: 99.123 minutes

Inclination: 75.7525 deg

SMA: 7094.839 km

Apoapsis: 805.186 km

Periapsis: 628.223 km

RAAN: 272.383 deg

Eccentricy: 0.01247124

Argument of periapsis: 35.488 deg

Mean anomaly: 325.4506 deg

Mean motion: 14.52743454 rev/day

Mean motion (dot): 0.00006202 rev/day2

B* drag term: 0.0013668313 1/REarth

Two-line elements (TLE)

Creation date: Dec. 12, 2025, 10:14 a.m.

Reference frame: TEME

Reference center: EARTH

Epoch: Dec. 12, 2025, 5:34 a.m. UTC

TLE line 0: 0 SL-18 DEB

TLE line 1: 1 22599U 93014E 25346.23245388 .00006202 00000-0 13668-2 0 9995

TLE line 2: 2 22599 75.7525 272.3830 0124712 35.4880 325.4506 14.52743454712497

Live tracking on map

Real-time ground track for satellite SL-18 DEB.

In-orbit conjunctions

A list of the most updated potential collisions computed for object SL-18 DEB.

Target Orbit TCA Probability of collision Miss distance Type
NOAA 16 DEB SSO 2025-06-28 12:19:18 0.0001633409 90.0 (m) DEBRIS
FENGYUN 1C DEB SSO 2024-11-28 06:17:01 0.0003146363 81.0 (m) DEBRIS

Associated space launch

EKA 1 and 2 were vehicle evaluation payloads on the maiden flights of the Start-1 and Start launch vehicles.

SL-18 DEB was lifted into orbit during the mission ‘Start-1 | EKA-1’, on board a Start-1 space rocket.

The launch took place on March 25, 1993, 1:15 p.m. from 158.

For more information about the launch, click the button.

Launch to space Start-1 | EKA-1
Start-1 | EKA-1

Agency: N/A

Status: Launch Successful

Launch date: March 25, 1993, 1:15 p.m. UTC

Rocket: Start-1

Launch pad: 158

Location: Plesetsk Cosmodrome, Russian Federation

...

Latest news about this satellite

There are no fresh news available about this satellite. Check back as we update our databases every day.


Newsletter sign-up

Weekly statistics, charts and insights to help you stay on top of the space industry.